Hourly Weather Roundup
Issued by NWS Central Illinois

Home | Current Version | Previous Version | Text Only | Print | Product List | Glossary On
Versions: 1 2 3 4 5 6 7 8 9 10 11 12 13 14 15 16 17 18 19 20 21 22 23 24 25 26 27 28 29 30 31 32 33 34 35 36 37 38 39 40 41 42 43 44 45 46 47 48 49 50
000
NZUS43 KILX 281810
HWRILX

AREA WEATHER ROUNDUP
NATIONAL WEATHER SERVICE, LINCOLN IL
100 PM CDT MON JUL 28 2014


CITY           SKY/WX    TMP DP  RH WIND       PRES   REMARKS
BLOOMINGTON    MOSUNNY   69  51  52 NW16G23   30.11S
CHAMPAIGN      PTSUNNY   72  55  55 NW15G21   30.07S
DECATUR        MOSUNNY   73  54  51 NW12G21   30.09S
6HR MIN TEMP:  63; 6HR MAX TEMP:  74;

FLORA          SUNNY     75  57  53 N10       30.07S
6HR MIN TEMP:  64; 6HR MAX TEMP:  76;

GALESBURG      PTSUNNY   71  53  52 N13G20    30.14F
JACKSONVILLE   MOSUNNY   73  57  56 NW13      30.14S
6HR MIN TEMP:  64; 6HR MAX TEMP:  74;

LACON          SUNNY     70  49  46 N7G17     30.11S
6HR MIN TEMP:  60; 6HR MAX TEMP:  70;

LAWRENCEVILLE  PTSUNNY   76  60  57 N15       30.05R
6HR MIN TEMP:  65; 6HR MAX TEMP:  76;

LITCHFIELD     PTSUNNY   71  58  64 NW13      30.12R
$$


CITY           SKY/WX    TMP DP  RH WIND       PRES   REMARKS
LINCOLN        MOSUNNY   73  52  48 N9G17     30.09R
6HR MIN TEMP:  63; 6HR MAX TEMP:  73;

MACOMB         PTSUNNY   69  54  57 N13       30.17S
MATTOON        PTSUNNY   73  56  54 N16       30.07S
6HR MIN TEMP:  61; 6HR MAX TEMP:  73;

MT CARMEL AP   PTSUNNY   77  61  57 NW10      30.05S
OLNEY-NOBLE AP MOSUNNY   73  59  60 NW10      30.06F
PARIS          MOSUNNY   72  59  64 NW8G16    30.06S
6HR MIN TEMP:  60; 6HR MAX TEMP:  73;

PEORIA         MOSUNNY   73  51  46 N9        30.12S
6HR MIN TEMP:  64; 6HR MAX TEMP:  73;

PONTIAC        SUNNY     72  52  49 N13       30.09S
RANTOUL        MOSUNNY   73  52  47 N10G17    30.08S
6HR MIN TEMP:  62; 6HR MAX TEMP:  73;

ROBINSON       MOSUNNY   76  59  55 NW10      30.06S
6HR MIN TEMP:  65; 6HR MAX TEMP:  76;

SPRINGFIELD    MOSUNNY   73  55  53 N13G20    30.11F
6HR MIN TEMP:  65; 6HR MAX TEMP:  74;

TAYLORVILLE    PTSUNNY   70  55  60 N13G18    30.10S
$$

...REGIONAL REPORTS...


CITY           SKY/WX    TMP DP  RH WIND       PRES   REMARKS
CHICAGO O`HARE MOSUNNY   69  41  36 N21G26    30.08F
KANKAKEE       PTSUNNY   69  55  60 N8        30.07S
MOLINE         SUNNY     72  49  44 N9G23     30.14F
MOUNT VERNON   MOSUNNY   75  61  60 N6        30.08S
PITTSFIELD     PTSUNNY   71  58  65 N7        30.15F
QUINCY         MOSUNNY   72  54  53 NW10      30.15F
ROCKFORD       MOSUNNY   72  47  40 N21G29    30.13S
$$


CITY           SKY/WX    TMP DP  RH WIND       PRES   REMARKS
BURLINGTON     MOSUNNY   72  54  53 N9G26     30.15F
CEDAR RAPIDS   PTSUNNY   71  50  47 N10G18    30.17F
DES MOINES     PTSUNNY   74  54  49 N9        30.21F
KIRKSVILLE     MOSUNNY   74  55  51 N13       30.20F
OTTUMWA        PTSUNNY   73  55  53 N13       30.19F
ST LOUIS       PTSUNNY   77  59  53 N14       30.12S
$$


CITY           SKY/WX    TMP DP  RH WIND       PRES   REMARKS
TERRE HAUTE    MOSUNNY   71  57  61 NW9       30.04R
EVANSVILLE     MOSUNNY   77  58  51 NW12G20   30.04F
INDIANAPOLIS   CLOUDY    68  57  68 NW12      30.01S
LAFAYETTE      PTSUNNY   69  55  60 N18       30.04R
MADISON        PTSUNNY   71  50  47 N15G28    30.12F
MILWAUKEE      PTSUNNY   65  50  58 NE13      30.09F
$$




USA.gov is the U.S. government's official web portal to all federal, state and local government web resources and services.